Weather in Zhazhlevo

Russia / Ivanovo Oblast     57°27′18″N   42°24′41″E
temp.,
°C
wind,
m/s
gust,
m/s
humid.,
%
clouds,
%
prec.,
mm/h
press.,
hPa
HPBL,
m
16 september, thu
thu1600:00+7nnw3781100 0.0 1010431
03:00+4n38875 0.1 1012395
06:00+2nw389676 0.0 1014280
09:00+7nnw376758 0.0 1015635
12:00+9nnw4557100 0.0 10161185
15:00+9nw3557100 0.0 10171475
18:00+7nw3764100 0.0 1017419
21:00+6nw3771100 0.0 1017313
17 september, fri
fri1700:00+5wnw2574100 0.0 1017209
03:00+5nw2681100 0.1 1018236
06:00+3nnw26936 0.1 1018178
09:00+7nnw255874 0.1 10181063
12:00+8nnw3549100 0.0 10181523
15:00+9nnw3551100 0.2 10181502
18:00+7nnw386990 0.2 1019527
21:00+2nnw259443 0.2 1020101
18 september, sat
sat1800:00+5nnw3885100 0.0 1021640
03:00+5nnw3791100 0.1 1022594
06:00+5n488765 0.1 1024731
09:00+6nne356877 0.1 1024972
12:00+8nne344974 0.1 10251517
15:00+10nne344485 0.1 10251667
18:00+5ne24655 0.0 102668
21:00+2nne23767 0.0 102757
19 september, sun
sun1900:00+3n227373 0.0 102726
03:00+1ne228210 0.0 102832
06:000nne22875 0.0 102918
09:00+6ne245588 0.0 1029725
12:00+9ne344885 0.0 10281302
15:00+10ne3446100 0.0 10271467
18:00+6ne226734 0.0 102835
21:00+3ne277999 0.0 1028159
20 september, mon
mon2000:00+2ene41179100 0.0 1029401
03:00+1ene41183100 0.0 1029414
06:00+1ene41183100 0.0 1030416
09:00+4e5965100 0.0 1030635
12:00+7e5752100 0.0 10291138
15:00+8e5749100 0.0 10281272
18:00+6ene4958100 0.0 1028893
21:00+5e41167100 0.0 1027654